Fullerton, CA

1:48 PM PST on December 12, 2017 (GMT -0800)
Fullerton Municipal

Weather History for KFUL - November, 2014

Change the Weather History Date:

Thursday, November 27, 2014

  Actual Average Record
Temperature  
Mean Temperature 71 °F 58 °F  
Max Temperature 91 °F 69 °F 91 °F (2014)
Min Temperature 50 °F 47 °F 38 °F (2010)
Degree Days  
Heating Degree Days 0 7  
Month to date heating degree days 19 118  
Since 1 July heating degree days 19 142  
Cooling Degree Days 6 0  
Month to date cooling degree days 60 19  
Year to date cooling degree days 2108 1250  
Growing Degree Days 20 (Base 50)    
Moisture  
Dew Point 34 °F    
Average Humidity 32    
Maximum Humidity 56    
Minimum Humidity 8    
Precipitation  
Precipitation 0.00 in 0.03 in 0.12 in (2004)
Month to date precipitation 0.25 0.99  
Year to date precipitation 4.00 11.72  
Since 1 July precipitation 0.54  
Snow  
Snow 0.00 in - - ()
Month to date snowfall 0.0  
Year to date snowfall 0.0  
Snow Depth 0.00 in    
Sea Level Pressure  
Sea Level Pressure 30.04 in    
Wind  
Wind Speed 1 mph (South)    
Max Wind Speed 8 mph    
Max Gust Speed 10 mph    
Visibility 10 miles    
Events      
T = Trace of Precipitation, MM = Missing Value Source: NWS Daily Summary

Daily Weather History Graph

Daily Weather History Graph

Search for Another Location

Airport or City:

Trip Planner

Search our weather history database for the weather conditions in past years. The results will help you decide how hot, cold, wet, or windy it might be!

Date:

Astronomy

Nov. 27, 2014 Rise Set
Actual Time 6:35 AM PST 4:43 PM PST
Civil Twilight 6:08 AM PST 5:10 PM PST
Nautical Twilight 5:37 AM PST 5:41 PM PST
Astronomical Twilight 5:07 AM PST 6:11 PM PST
Moon 11:00 AM PST (11/27) 10:21 PM PST (11/27)
Length of Visible Light 11h 02m
Length of Day
10h 08m
Waxing Crescent, 32% of the Moon is Illuminated
Nov 27
Waxing Crescent
Nov 29
First Quarter
Dec 6
Full
Dec 14
Last Quarter
Dec 21
New

Hourly Weather History & Observations

Time (PST) Temp. Dew Point Humidity Pressure Visibility Wind Dir Wind Speed Gust Speed Precip Events Conditions
12:53 AM 55.0 °F 39.0 °F 55% 30.09 in 10.0 mi Calm Calm - N/A   Clear
1:53 AM 55.0 °F 37.9 °F 53% 30.09 in 10.0 mi Calm Calm - N/A   Clear
2:53 AM 54.0 °F 37.0 °F 53% 30.08 in 10.0 mi Calm Calm - N/A   Clear
3:53 AM 52.0 °F 36.0 °F 54% 30.07 in 10.0 mi Calm Calm - N/A   Clear
4:53 AM 52.0 °F 35.1 °F 53% 30.06 in 10.0 mi Calm Calm - N/A   Clear
5:53 AM 50.0 °F 36.0 °F 59% 30.08 in 10.0 mi Calm Calm - N/A   Clear
6:53 AM 51.1 °F 36.0 °F 56% 30.09 in 10.0 mi Calm Calm - N/A   Clear
7:53 AM 57.9 °F 34.0 °F 41% 30.09 in 10.0 mi East 4.6 mph - N/A   Clear
8:53 AM 69.1 °F 30.0 °F 23% 30.09 in 10.0 mi Calm Calm - N/A   Clear
9:53 AM 79.0 °F 28.9 °F 16% 30.09 in 10.0 mi Calm Calm - N/A   Clear
10:53 AM 84.9 °F 28.9 °F 13% 30.06 in 10.0 mi Calm Calm - N/A   Clear
11:53 AM 86.0 °F 28.9 °F 13% 30.04 in 10.0 mi West 5.8 mph - N/A   Clear
12:53 PM 89.1 °F 23.0 °F 9% 30.01 in 10.0 mi Calm Calm - N/A   Clear
1:53 PM 91.0 °F 21.9 °F 8% 29.99 in 10.0 mi Calm Calm - N/A   Clear
2:53 PM 89.1 °F 21.0 °F 8% 29.98 in 10.0 mi SSW 3.5 mph - N/A   Clear
3:53 PM 82.0 °F 36.0 °F 19% 29.98 in 10.0 mi SSW 5.8 mph - N/A   Clear
4:53 PM 77.0 °F 30.9 °F 19% 29.99 in 10.0 mi Calm Calm - N/A   Clear
5:53 PM 70.0 °F 37.9 °F 31% 30.00 in 10.0 mi Calm Calm - N/A   Clear
6:53 PM 64.9 °F 39.9 °F 40% 30.00 in 10.0 mi Calm Calm - N/A   Clear
7:53 PM 64.9 °F 37.9 °F 37% 30.01 in 10.0 mi Calm Calm - N/A   Clear
8:53 PM 63.0 °F 37.9 °F 40% 30.01 in 10.0 mi East 3.5 mph - N/A   Clear
9:53 PM 59.0 °F 39.9 °F 49% 30.01 in 10.0 mi Calm Calm - N/A   Clear
10:53 PM 57.0 °F 41.0 °F 55% 30.00 in 10.0 mi Calm Calm - N/A   Clear
11:53 PM 55.9 °F 41.0 °F 57% 29.99 in 10.0 mi Calm Calm - N/A   Clear